Regional Weather Roundup
Issued by NWS

Home | Current Version | Previous Version | Graphics & Text | Print | Product List | Glossary On
Versions: 1 2 3 4 5 6 7 8 9 10 11 12 13 14 15 16 17 18 19 20 21 22 23 24 25 26 27 28 29 30 31 32 33 34 35 36 37 38 39 40 41 42 43 44 45 46 47 48 49 50
000
ASUS43 KLOT 302312
RWRIL

ILLINOIS REGIONAL WEATHER ROUNDUP
NATIONAL WEATHER SERVICE CHICAGO/ROMEOVILLE IL
600 PM CDT SUN AUG 30 2015

NOTE: "FAIR" INDICATES FEW OR NO CLOUDS BELOW 12,000 FEET WITH NO
SIGNIFICANT WEATHER AND/OR OBSTRUCTIONS TO VISIBILITY.

* THESE STATIONS ARE NOT UNDER NWS QUALITY CONTROL. THEY ALSO MAY NOT
  REPORT WEATHER SUCH AS PRECIPITATION OR FOG.

ILZ001-002-007-009-015-016-024-310000-
NORTHWEST ILLINOIS

CITY           SKY/WX    TMP DP  RH WIND       PRES   REMARKS
MOLINE         SUNNY     80  65  59 CALM      30.01F HX  82
STERLING*        N/A    N/A N/A N/A MISG        N/A
SAVANNA*       SUNNY     75  63  66 CALM      30.01F
$$

ILZ003-004-008-010-011-017-018-310000-
NORTH CENTRAL ILLINOIS

CITY           SKY/WX    TMP DP  RH WIND       PRES   REMARKS
ROCKFORD       MOSUNNY   75  62  64 CALM      30.04S
FREEPORT*      SUNNY     73  64  73 CALM      30.04F
ROCHELLE*      SUNNY     74  64  72 CALM      30.03F
DE KALB*       MOSUNNY   74  65  71 CALM      30.04S
PERU*          SUNNY     76  63  64 CALM      30.02F
$$

ILZ005-006-012>014-019>023-310000-
NORTHEAST ILLINOIS

CITY           SKY/WX    TMP DP  RH WIND       PRES   REMARKS
CHICAGO-OHARE  MOSUNNY   74  65  73 E5        30.02S
CHICAGO-MIDWAY MOSUNNY   75  64  68 E9        30.02S
AURORA         CLOUDY    77  64  64 CALM      30.03S
LANSING*       PTSUNNY   74  65  74 E6        30.02S
JOLIET*        SUNNY     79  65  62 CALM      30.02S HX  81
WAUKEGAN       MOSUNNY   67  63  87 E3        30.02F
DUPAGE AIRPORT SUNNY     75  63  66 CALM      30.02F
KANKAKEE*      MOSUNNY   79  68  69 NW3       30.03S HX  82
WHEELING       SUNNY     71  64  78 E6        30.03F
MORRIS*        SUNNY     77  66  68 CALM      30.01S
ROMEOVILLE*    SUNNY     76  63  62 NW3       30.02S
NORTHERLY ISL    N/A     69  64  84 NE6         N/A
$$

LMZ740>746-310000-
SOUTHERN LAKE MICHIGAN

STATION/POSITION SKY/WX   TEMP    WIND        PRES    VSBY  WAVE
                          AIR SEA DIR/SP/G                  HT/PER
                          (F)     (DEG/KT/KT) (MB)    (MI)  (FT/S)
SOUTHERN BUOY              67 69   70/  2/  2 1016.7F         1
WILMETTE HARBOR            62 60   70/  2/  2   N/A           1/ 3
HARRISON CRIB              68      30/  6/  7   N/A
BURNHAM HARBOR             69      50/  5/  6   N/A
BURNS HARBOR               72      40/  8/  9 1017.3F
MICHIGAN CITY              69      10/  7/  8   N/A
MICHIGAN CITY 6N           69 71   80/  6/  8   N/A           1/ 3
ST. JOSEPH                 69 71   80/  4/  4   N/A           1/ 3
$$

ILZ025>027-034>036-040-047-049-050-058-095>099-310000-
WEST-CENTRAL ILLINOIS

CITY           SKY/WX    TMP DP  RH WIND       PRES   REMARKS
QUINCY         MOSUNNY   85  67  54 NE3       29.99F HX  87
GALESBURG*     MOSUNNY   78  68  72 N5        30.01S
MACOMB*        SUNNY     80  69  69 NE3       30.03S HX  83
JACKSONVILLE*  SUNNY     85  72  64 CALM      29.99S HX  90
PITTSFIELD*    SUNNY     85  70  60 CALM      30.00F HX  90
$$

ILZ028>032-037-038-041>044-048-051>054-059>061-310000-
CENTRAL ILLINOIS

CITY           SKY/WX    TMP DP  RH WIND       PRES   REMARKS
PONTIAC        MOSUNNY   79  70  73 NW3       30.03S HX  82
BLOOMINGTON    PTSUNNY   82  71  69 NE7       30.03S HX  86
DECATUR        MOSUNNY   85  68  56 S5        30.00S HX  88
PEORIA         SUNNY     83  67  58 N5        30.01S HX  85
LACON*         SUNNY     77  65  66 CALM      30.00F
LINCOLN*       MOSUNNY   84  69  58 N3        29.99S HX  88
SPRINGFIELD    SUNNY     86  69  56 CALM      29.99F HX  90
TAYLORVILLE    PTSUNNY   79  72  78 CALM      30.00S HX  82
$$

ILZ033-039-045-046-055>057-062-063-310000-
EAST-CENTRAL ILLINOIS

CITY           SKY/WX    TMP DP  RH WIND       PRES   REMARKS
CHAMPAIGN      PTSUNNY   84  67  56 SW5       30.01S HX  86
RANTOUL*       MOSUNNY   85  70  60 CALM      30.01S HX  89
MATTOON        MOSUNNY   83  66  56 SW5       30.01S HX  85
PARIS*         SUNNY     83  68  59 CALM      30.02S HX  86
$$

ILZ079-100>102-310000-
SOUTHWEST ILLINOIS

CITY           SKY/WX    TMP DP  RH WIND       PRES   REMARKS
ALTON          MOSUNNY   82  70  65 CALM      30.00S HX  86
BELLEVILLE     SUNNY     86  72  62 E1        29.98S HX  92
CAHOKIA*       MOSUNNY   87  70  56 SE5       29.98S HX  92
SPARTA*        SUNNY     83  73  69 S6        30.01S HX  89
$$

ILZ064>066-069>071-074>076-080>082-084>086-088>090-092>094-310000-
SOUTH-CENTRAL ILLINOIS

CITY           SKY/WX    TMP DP  RH WIND       PRES   REMARKS
CARBONDALE     SUNNY     83  70  64 S6        30.01S HX  87
CAIRO*         SUNNY     82  75  78 SE7       30.01S HX  89
EFFINGHAM*     CLOUDY    83  64  51 SW5       30.03S HX  85
MARION         MOSUNNY   84  72  65 S9        30.02S HX  89
MT. VERNON     MOSUNNY   86  68  54 S5        30.02S HX  89
SALEM*         PTSUNNY   84  68  57 S3        30.01S HX  87
METROPOLIS*    PTSUNNY   81  72  74 SE10      30.03S HX  85
$$

ILZ067-068-072-073-078-083-087-091-310000-
SOUTHEAST ILLINOIS

CITY           SKY/WX    TMP DP  RH WIND       PRES   REMARKS
LAWRENCEVILLE  MOSUNNY   83  69  62 S8        30.01F HX  86
FLORA*         MOSUNNY   83  66  57 S6        30.02S HX  85
FAIRFIELD*     PTSUNNY   84  69  61 SW5       30.01S HX  88
HARRISBURG*    MOSUNNY   84  72  68 S7        30.02S HX  89
ROBINSON*      MOSUNNY   85  64  50 S5        30.02S HX  86
CARMI*         MOSUNNY   83  70  66 S7        30.01F HX  87
$$

ABBREVIATIONS USED IN REMARKS
   TC - TEMPERATURE IN CELSIUS
  WCI - WIND CHILL INDEX
   HX - HEAT INDEX
  VSB - VISIBILITY
$$



USA.gov is the U.S. government's official web portal to all federal, state and local government web resources and services.